sat.trackr.live / text

‹ back to catalog

STARLINK-32383

NORAD 61891 · 2024-204T

PAYLOAD ACTIVE UNKNOWN

§ Identity

Operator
Country
US
Launch date
2024-11-09
Launch site
AFWTR
Launch vehicle
Mass (kg)
RCS (m²)

Purposes: comms

External: N2YO · Heavens-Above · Gunter

§ Orbital elements

Epoch: 2026-09-20T08:48:31.639104Z

Period
93.85 min
Inclination
53.1615°
Eccentricity
0.0001400
Mean motion
15.34391954 rev/d
Perigee alt
461.8 km
Apogee alt
463.7 km
Semi-major
6,840.9 km
B*
2.0829e-5
RAAN
298.5614°
Arg perigee
82.0346°
Mean anomaly
278.0815°
Rev number
10,496

§ Raw data

STARLINK-323831 61891U 24204T   26263.36703286  .00000327  00000+0  20829-4 0  99972 61891  53.1615 298.5614 0001400  82.0346 278.0815 15.34391954104966

JSON: /api/v1/satellites/61891 · /tle

For live sub-satellite position, see the globe view (requires WebGL).

§ Visibility from observer

Set your observer location to see the next 7 days of passes ≥ 10°. The values pass through the URL so the page stays shareable.

No JS? Fill the form by hand. The geolocation button needs JavaScript.